DELTA 1 DEB, 40764

Orbit data source: Space-Track

DELTA 1 DEB, 40764 is space debris in SSO originally from a launch on Thu, 29 Jul 1976 UTC launched from the Air Force Western Test Range (AFWTR). Debris objects in space refer to the collection of defunct objects orbiting the Earth. Examples of debris include non-operational satellites, rocket bodies, and fragments generated from explosions, collisions, or faulty payload assembly.

Loading next visibility...
Identifier
40764, 1976-077GH
Orbit
SSO
Country
Flag of USUS
Related business
Manufacturer
Unknown
Mission
Spacecraft
Bus & Motor
Unknown
Mass
Unknown
Launch date (UTC)
1976-07-29 (49 years ago)
Launch vehicle
Unknown
Launch site
Air Force Western Test Range (AFWTR)
Object type
Payload
Rocket body
Debris
Shape & HBR
Unknown shape, 0.1 m
Radar Cross Section
Small (<0.1 m²)

Expand to show TLE details & history
Last TLE update: 6 days ago

TLE from 6 days ago
0 DELTA 1 DEB
1 40764U 76077GH  26017.69180112 -.00000008  00000-0  27925-3 0  9999
2 40764 102.1857 359.7243 0001414 339.3812  20.7194 12.40709948883162
Epoch: 2026-01-17T16:36Z
TLE epoch observation values (Epoch: 2026-01-17T16:36:11.616Z)
Latitude
-0.00003°
Longitude
-6.43718°
Altitude
1,505.095 km
Speed
7.113 km/s
True Right ascension
23h 58m 53s
True Declination
0° 00' 00"
Sunlit
Object was in daylight at epoch
Visualization orbit readout
Latitude
Unknown
Longitude
Unknown
Altitude
Unknown
Speed
Unknown
Apparent Right ascension
Unknown
Apparent Declination
Unknown
Sunlit
N/A
Visualization observer readout
Local Sidereal Time
03:57:05
Azimuth
Unknown
Elevation
Unknown
Doppler factor
Unknown
Orbital elements
Apogee altitude
1,502.294 km
Perigee altitude
1,500.066 km
Semi-major axis
7,879.317 km
Eccentricity
0.00014
Inclination
102.1857°
RAAN
359.7243°
Arg. of periapsis
339.3812°
True anomaly
20.72513°
Mean anomaly
20.7194°
Eccentric anomaly
20.72227°
Mean motion
3.1032 °/min
Orbital period
116.01 mins
BSTAR
0.00027925
Loading maneuver chart data...
Computing Atmospheric mass density...
Loading historical data...
Loading historical data...
Loading historical data...
Loading historical data...
Loading historical data...
Loading historical data...
Loading historical data...

Documentation

Showing up to 5 results
|